Wind_Speed
3 3 1 4 5 9 9 7 7 7 11 12 13 10 9 6 6 5 5 5 4 4 6 10 13 9 14 21 13 20 22 22 23 25 26 26 25 27 27 28 29 27 28 26
1 3 4 7 7 9 11 6 9 6 3 5 10 8 7 7 6 5 4 2 4 4 5 10 12 12 16 17 14 20 21 22 23 25 27 26 28 26 25 25 28 28 29 27
3 2 2 10 8 9 6 5 7 6 6 11 11 9 7 6 6 5 4 3 4 3 7 12 13 13 17 10 18 19 20 22 24 25 25 25 27 27 26 26 26 24 27 27
3 2 5 5 6 8 6 3 4 10 12 10 9 7 8 6 6 4 3 3 4 6 10 13 14 16 13 14 17 19 21 23 25 26 24 25 26 26 25 25 25 25 24 25
4 4 6 7 2 5 6 2 3 12 11 13 13 10 4 5 4 3 3 8 11 13 15 17 18 17 10 15 16 20 22 22 24 26 24 24 26 26 25 21 23 23 23 26
3 3 5 4 3 5 5 0 4 10 7 10 9 3 3 3 3 11 19 17 16 16 17 19 18 16 14 16 19 21 21 22 24 24 23 23 25 25 25 21 23 21 19 20
2 2 6 5 5 0 5 5 5 7 6 5 4 3 4 6 13 18 17 17 15 16 17 17 17 15 14 17 19 21 22 22 23 23 22 21 24 23 24 22 21 21 18 20
2 2 6 5 3 5 5 5 8 7 6 7 6 8 8 10 10 14 15 16 15 14 14 16 17 16 14 17 21 23 24 23 24 23 23 23 24 24 25 23 20 19 18 20
6 5 2 2 3 7 5 8 5 7 6 8 9 8 9 9 9 13 14 13 13 12 12 15 16 16 16 19 23 23 22 24 24 22 23 23 24 22 20 20 20 19 18 18
4 2 4 8 7 7 8 8 7 8 10 9 10 8 10 8 8 11 12 12 11 12 12 14 15 15 17 20 22 22 23 25 24 23 22 22 23 23 20 20 18 18 16 21
2 5 8 4 6 10 8 10 11 9 9 10 11 9 9 7 9 10 10 11 11 10 10 14 16 15 20 21 21 20 24 24 23 24 25 23 21 21 19 21 20 20 19 24
5 11 5 6 6 7 9 8 11 15 12 13 16 9 13 10 10 10 9 10 9 10 10 15 17 16 21 21 20 22 22 24 22 26 27 23 22 22 19 18 17 17 19 21
4 7 8 14 9 7 9 11 15 16 16 12 14 15 13 12 11 10 10 9 10 11 10 14 16 19 21 21 22 22 23 22 21 25 25 22 22 24 19 22 18 17 18 19
16 17 11 11 7 14 18 18 21 20 18 17 17 15 15 13 12 11 10 10 12 11 14 13 16 19 19 20 22 22 21 20 23 23 23 22 22 22 17 20 19 20 20 19
8 7 9 13 15 12 20 20 12 11 14 15 15 15 13 11 10 8 9 9 11 11 13 14 16 17 20 19 21 20 20 22 22 22 21 21 21 20 14 17 19 18 20 23
12 14 14 14 11 9 11 10 13 10 12 12 12 11 11 10 7 8 8 8 10 13 15 16 14 18 19 17 20 19 20 21 21 21 21 21 22 22 14 14 16 18 19 22
14 7 10 10 10 8 9 11 14 12 12 12 11 10 9 7 8 11 10 12 12 12 13 13 15 22 15 17 19 18 19 21 20 20 20 21 20 22 17 14 13 14 16 19
12 12 13 15 13 12 10 15 16 14 12 12 13 12 10 8 8 10 9 10 12 15 12 12 17 18 16 18 18 18 18 20 19 19 19 20 20 20 19 17 14 15 15 16
16 13 16 18 18 18 16 14 13 14 16 15 14 11 7 5 4 7 9 10 14 14 13 12 19 16 17 16 17 17 17 20 19 18 20 19 20 19 19 19 15 14 17 17
17 20 22 20 20 21 17 15 17 18 14 14 11 9 7 3 4 6 11 9 12 11 8 14 18 17 16 15 17 15 17 19 18 18 18 19 19 19 19 17 15 16 16 18
15 17 17 17 17 17 20 20 20 18 14 12 11 9 8 5 7 11 9 7 9 10 6 14 17 16 14 14 16 15 17 19 17 17 18 18 18 18 18 17 15 18 18 18
16 16 19 21 20 20 18 17 18 17 15 12 9 9 10 9 13 9 8 7 8 9 8 12 14 14 13 13 14 14 16 18 17 17 17 17 17 17 16 16 16 15 16 17
20 21 22 22 21 21 18 16 16 15 13 11 12 11 11 10 7 5 3 4 7 7 7 9 11 13 11 12 13 13 14 16 16 16 16 15 15 16 16 16 14 16 16 16
22 22 21 20 20 19 16 17 16 14 13 12 11 10 9 9 5 3 3 3 5 6 6 7 9 11 11 11 11 12 12 14 15 14 14 14 15 16 14 14 13 15 17 17
23 23 22 22 18 17 18 17 15 14 13 11 8 8 6 4 2 2 1 2 3 4 5 6 7 8 9 9 10 11 11 12 13 14 12 13 15 16 13 12 13 13 14 14
21 17 20 22 19 19 17 18 17 15 13 13 11 9 8 4 3 1 1 2 3 4 5 5 6 7 8 8 9 10 10 11 11 13 13 12 13 15 16 11 13 14 14 14
18 18 17 16 14 15 18 19 17 12 12 15 17 11 7 5 3 1 1 3 3 4 5 5 6 6 8 9 9 11 10 10 10 10 11 12 12 13 13 11 11 13 13 16
Wind_Direction
164 157 344 213 212 207 199 195 181 197 215 199 181 171 166 157 144 122 81 61 43 43 21 357 348 358 359 358 9 358 356 350 343 342 342 343 347 345 350 356 357 359 357 3
232 200 229 254 230 226 230 214 224 205 208 141 138 130 156 154 139 116 104 68 64 60 1 357 11 1 1 4 5 3 356 350 345 346 346 347 349 349 353 356 1 2 4 12
259 187 350 279 204 217 211 188 172 180 184 148 150 163 158 142 119 126 125 96 76 34 13 15 13 15 5 26 6 4 356 350 348 347 347 348 348 350 353 358 359 1 6 9
174 133 236 274 222 205 175 33 140 107 134 140 126 102 104 109 127 132 119 82 55 35 30 25 28 19 18 16 11 3 358 352 349 345 346 347 349 349 349 354 358 360 4 5
155 202 297 311 263 145 154 16 18 121 115 120 124 104 89 138 158 149 100 68 69 55 46 44 31 18 36 22 13 4 354 351 348 344 348 347 349 347 348 355 357 358 0 360
132 185 228 252 255 129 91 352 1 125 127 141 166 133 176 155 80 68 75 70 60 57 51 38 25 24 27 19 8 359 351 347 348 348 348 347 348 346 346 351 355 355 354 0
157 209 286 234 186 169 137 215 130 120 123 133 117 165 141 101 79 82 76 61 55 53 51 35 26 26 27 12 3 350 350 348 349 352 348 350 350 348 349 348 350 348 352 356
109 125 257 190 92 161 166 100 126 118 129 113 122 113 99 90 84 77 67 55 48 46 39 30 25 23 18 7 353 353 350 348 351 357 348 352 355 350 351 349 349 348 356 359
167 210 258 355 135 111 119 127 133 122 125 111 109 107 102 99 85 76 68 58 44 39 33 27 17 17 8 356 352 348 346 349 356 359 355 2 1 353 349 354 346 351 359 1
104 260 118 99 75 93 107 119 118 97 103 112 114 106 103 93 81 76 63 48 35 34 30 13 10 10 6 352 354 352 344 353 359 356 351 6 7 5 357 354 351 356 6 3
95 109 98 73 112 122 112 105 113 108 108 112 105 98 103 92 82 74 57 39 37 33 27 12 9 3 360 360 0 353 346 353 357 350 357 1 5 7 3 6 6 8 20 4
209 176 145 149 158 132 118 110 120 109 88 84 106 111 107 97 91 76 54 36 36 30 21 12 12 2 4 5 3 356 345 347 352 348 355 359 357 1 14 10 13 12 16 8
154 143 130 135 142 125 107 110 112 111 113 110 105 111 103 103 91 76 53 46 34 24 23 14 13 10 9 7 4 356 355 356 353 352 350 352 359 358 351 5 18 18 14 13
113 111 109 147 144 125 119 117 109 106 103 105 107 98 108 105 92 75 57 46 38 62 33 21 18 16 12 6 3 1 5 7 356 356 356 356 355 353 358 359 1 11 15 13
129 86 124 118 119 121 127 124 112 108 106 93 94 97 110 108 99 78 62 49 50 43 26 24 19 15 6 4 4 9 13 5 358 1 1 354 355 353 3 4 8 10 14 15
112 114 119 122 130 131 123 116 115 116 112 110 102 99 118 108 91 72 67 44 60 28 25 24 23 5 1 7 9 15 13 6 6 5 1 357 2 351 0 11 14 12 15 11
119 113 121 122 122 108 109 111 121 125 119 115 113 112 111 105 83 69 59 94 57 37 31 28 11 1 13 16 17 17 10 9 10 9 3 2 358 357 3 15 21 21 16 11
141 145 144 139 135 123 112 114 117 123 125 126 127 121 110 93 80 67 95 72 45 36 36 27 7 9 19 20 16 20 17 14 12 13 6 9 5 9 7 11 25 25 18 11
116 117 120 122 125 122 122 121 122 125 132 133 133 133 132 105 71 51 122 54 39 28 26 19 12 18 19 23 17 22 21 17 18 18 13 13 10 16 9 12 18 26 21 17
94 100 106 106 119 127 123 129 130 132 138 144 134 137 139 121 78 73 130 75 37 18 26 21 17 18 21 21 19 21 21 15 17 19 16 16 14 14 13 15 19 20 14 13
112 111 110 114 117 133 140 143 141 139 142 148 139 116 87 89 119 131 109 72 33 27 33 21 18 17 21 19 20 22 23 19 20 23 18 18 15 15 14 17 20 18 16 12
123 120 125 129 128 134 142 143 142 142 142 141 133 123 103 108 132 114 72 64 34 21 21 17 19 16 18 20 22 26 26 21 21 23 20 21 19 15 14 15 17 13 11 10
136 138 141 143 143 143 148 151 153 151 147 140 137 119 114 118 118 116 102 40 21 17 20 13 16 14 16 21 22 23 22 20 20 22 21 21 18 18 16 14 15 16 10 6
144 150 150 149 149 149 152 164 166 164 151 140 138 143 136 144 124 84 73 26 12 14 12 9 11 15 14 18 19 19 19 19 18 18 20 19 18 16 16 16 14 9 14 15
154 155 156 159 163 171 166 165 171 181 183 182 178 179 171 164 128 109 49 18 9 5 3 356 359 5 10 9 8 7 6 6 10 9 10 16 15 10 3 7 6 8 5 7
159 163 171 177 179 177 178 179 187 190 194 195 193 188 178 170 167 174 347 351 350 352 354 347 342 350 350 349 347 350 352 355 359 6 5 4 6 10 13 22 7 5 3 2
174 177 180 188 202 197 188 187 193 203 198 190 179 177 185 185 190 216 278 317 317 331 333 335 333 338 341 332 335 331 328 339 346 345 351 356 355 356 359 358 4 359 356 354
Height
782 780 781 783 787 790 794 796 809 799 794 799 808 817 823 823 824 826 827 828 829 829 829 829 827 824 821 818 815 811 806 801 796 790 784 777 770 764 758 750 742 734 727 721
786 783 783 785 784 785 783 785 788 788 792 796 806 815 822 822 823 825 827 829 829 829 830 827 825 822 820 817 815 811 806 801 796 789 783 776 770 764 758 751 744 735 729 724
791 783 784 789 781 777 777 777 783 795 792 800 809 814 820 823 825 828 828 828 828 827 827 825 823 822 820 817 815 811 806 801 794 788 783 777 771 765 758 752 746 739 732 726
799 792 800 774 767 766 775 778 776 785 791 798 809 819 823 825 827 828 826 825 825 827 826 824 823 822 820 818 814 810 805 799 794 788 783 778 772 766 759 753 748 741 735 731
807 800 784 774 770 772 772 792 789 790 798 807 814 820 827 824 825 824 823 824 827 827 826 825 824 823 821 818 814 809 805 799 794 789 784 778 773 767 761 756 750 744 740 734
806 804 810 784 774 769 770 808 797 794 802 806 812 820 828 823 822 822 824 827 828 828 827 826 825 824 821 817 813 809 805 800 795 790 785 780 774 768 763 757 752 747 743 739
805 829 797 777 772 768 785 803 800 802 808 810 819 821 820 821 823 825 827 828 829 829 829 828 826 824 821 818 814 810 805 800 795 790 786 781 775 770 764 759 754 749 743 738
812 825 806 772 773 780 794 797 801 806 808 810 814 817 820 823 827 828 828 829 830 830 830 829 826 824 821 818 814 809 805 800 795 790 785 780 775 770 765 760 755 750 745 739
794 795 782 778 778 784 787 795 803 804 806 810 815 819 823 828 830 830 830 831 832 832 831 829 827 824 821 817 813 809 804 800 795 790 785 781 775 771 767 762 757 751 746 742
785 785 784 783 785 787 791 797 800 803 808 812 818 821 827 829 831 831 832 832 833 832 832 830 827 824 821 817 813 808 803 798 794 790 786 781 776 772 768 764 759 754 749 744
788 784 786 789 789 791 795 798 803 808 811 815 819 825 827 831 832 833 834 833 833 833 832 830 827 824 821 817 813 808 803 798 793 789 785 781 778 773 770 766 762 757 753 748
784 777 781 788 793 793 795 799 803 809 816 820 821 826 829 831 833 834 834 834 834 833 832 830 826 824 820 817 812 808 803 798 793 789 785 780 776 773 771 767 763 760 756 751
765 770 775 785 791 793 798 803 807 811 816 820 825 826 828 831 834 835 835 835 834 833 831 829 826 824 820 816 813 808 804 799 794 790 785 781 776 772 768 765 763 760 757 754
765 773 785 787 791 795 799 805 809 814 818 822 824 827 829 832 834 835 835 836 835 833 832 830 827 824 821 817 813 808 804 800 796 791 786 781 776 772 769 766 762 760 757 754
770 771 777 785 792 797 800 805 811 817 821 824 827 829 831 833 835 835 835 835 835 834 832 830 827 824 821 817 812 808 804 800 796 791 787 783 777 773 770 766 763 759 756 753
774 778 783 788 794 798 801 807 812 819 823 826 828 830 832 834 835 836 835 835 834 833 832 829 827 825 820 816 812 808 805 801 797 792 788 784 779 774 771 768 764 760 756 753
778 787 788 793 796 801 805 808 812 818 823 826 829 831 833 834 835 835 835 834 835 833 832 829 828 824 820 816 813 809 806 802 798 793 790 786 782 777 773 769 766 763 760 756
771 777 783 788 796 802 808 812 815 819 823 826 829 832 833 834 835 835 835 835 835 833 831 830 827 823 820 816 813 810 807 803 798 795 791 787 783 779 776 772 769 766 763 759
776 782 787 791 796 802 808 813 817 820 824 827 829 831 833 833 834 834 834 835 834 832 831 829 827 823 820 817 814 811 808 804 800 796 793 789 785 781 778 775 772 769 765 762
784 787 790 795 800 803 809 814 818 821 825 828 830 831 832 832 832 832 833 834 834 832 830 829 826 823 820 817 815 811 808 805 801 797 794 790 787 784 781 777 774 771 768 764
788 792 795 799 804 808 811 814 817 821 825 827 829 830 831 831 831 832 833 833 833 831 830 828 825 823 820 818 815 812 809 806 802 799 796 793 789 786 782 779 776 773 769 766
790 794 798 802 806 811 814 816 819 821 824 826 828 830 830 830 831 832 832 832 832 830 829 827 825 823 821 818 815 812 810 807 803 800 797 794 791 788 784 781 778 775 771 768
791 796 800 804 808 811 815 817 820 822 824 825 827 829 830 831 832 831 831 831 830 829 828 827 825 823 820 818 816 813 810 807 804 802 799 796 793 789 786 783 780 776 773 769
793 798 802 806 810 812 815 818 821 823 825 826 827 829 830 830 831 831 831 830 829 828 827 826 824 822 820 818 816 814 811 808 805 802 800 797 794 790 787 784 781 777 774 770
794 798 802 806 809 811 814 817 820 822 824 826 827 829 829 830 830 830 830 829 828 827 826 825 824 822 820 818 815 813 811 808 805 803 800 797 794 791 787 784 781 778 775 772
795 798 801 804 806 809 812 815 817 820 822 823 826 827 828 828 829 829 829 828 827 826 825 824 822 821 819 817 815 812 810 807 805 802 800 797 794 791 788 785 782 779 776 772
796 799 802 805 807 808 811 813 815 817 818 819 822 825 826 827 827 827 827 827 826 825 823 822 821 819 817 815 813 811 809 806 804 801 799 796 794 791 788 785 782 779 776 773